Monticello, AR

4:56 AM CST on December 03, 2016 (GMT -0600)
Monticello Municipal-Ellis

Weather History for KLLQ - March, 2013

Change the Weather History Date:

Sunday, March 10, 2013

  Actual Average Record
Temperature  
Mean Temperature 56 °F -  
Max Temperature 66 °F 65 °F 82 °F (1974)
Min Temperature 45 °F 41 °F 24 °F (1963)
Degree Days  
Heating Degree Days 9    
Growing Degree Days 6 (Base 50)    
Moisture  
Dew Point 53 °F    
Average Humidity 85    
Maximum Humidity 97    
Minimum Humidity 69    
Precipitation  
Precipitation 0.72 in - - ()
Sea Level Pressure  
Sea Level Pressure 29.84 in    
Wind  
Wind Speed 9 mph (SW)    
Max Wind Speed 20 mph    
Max Gust Speed 32 mph    
Visibility 8 miles    
Events Rain    
Averages and records for this station are not official NWS values.
T = Trace of Precipitation, MM = Missing Value Source: NWS Daily Summary

Daily Weather History Graph

Daily Weather History Graph

Search for Another Location

Airport or City:

Trip Planner

Search our weather history database for the weather conditions in past years. The results will help you decide how hot, cold, wet, or windy it might be!

Date:

Astronomy

Mar. 10, 2013 Rise Set
Actual Time 7:23 AM CDT 7:11 PM CDT
Civil Twilight 6:58 AM CDT 7:36 PM CDT
Nautical Twilight 6:30 AM CDT 8:04 PM CDT
Astronomical Twilight 6:01 AM CDT 8:33 PM CDT
Moon 6:22 AM CDT (3/10) 6:19 PM CDT (3/10)
Length of Visible Light 12h 37m
Length of Day
11h 47m
Waning Crescent, 2% of the Moon is Illuminated
Mar 10
Waning Crescent
Mar 11
New
Mar 19
First Quarter
Mar 27
Full
Apr 2
Last Quarter

Hourly Weather History & Observations

Time (CDT) Temp. Windchill Dew Point Humidity Pressure Visibility Wind Dir Wind Speed Gust Speed Precip Events Conditions
12:12 AM 64.4 °F - 55.4 °F 73% 29.92 in 10.0 mi South 9.2 mph - N/A   Mostly Cloudy
12:53 AM 64.0 °F - 55.9 °F 75% 29.90 in 10.0 mi South 10.4 mph - N/A   Mostly Cloudy
1:53 AM 63.0 °F - 55.9 °F 78% 29.88 in 10.0 mi SSE 10.4 mph - 0.00 in   Mostly Cloudy
3:18 AM 62.6 °F - 55.4 °F 77% 29.87 in 10.0 mi SSE 8.1 mph - N/A   Overcast
3:53 AM 62.1 °F - 55.9 °F 80% 29.83 in 10.0 mi SSE 11.5 mph 18.4 mph N/A   Mostly Cloudy
4:00 AM 62.6 °F - 55.4 °F 77% 29.83 in 10.0 mi SSE 10.4 mph 18.4 mph N/A   Scattered Clouds
4:23 AM 62.6 °F - 55.4 °F 77% 29.85 in 10.0 mi SSE 9.2 mph - N/A   Mostly Cloudy
4:53 AM 62.1 °F - 55.9 °F 80% 29.85 in 10.0 mi SSE 5.8 mph - N/A   Overcast
5:53 AM 62.1 °F - 55.9 °F 80% 29.84 in 10.0 mi SE 9.2 mph - 0.00 in   Overcast
7:00 AM 60.8 °F - 55.4 °F 82% 29.80 in 10.0 mi SSE 10.4 mph 20.7 mph N/A   Overcast
7:53 AM 62.1 °F - 57.0 °F 84% 29.82 in 10.0 mi SSE 12.7 mph - 0.00 in Rain Light Rain
8:28 AM 62.6 °F - 57.2 °F 82% 29.80 in 10.0 mi SSE 10.4 mph 21.9 mph 0.00 in   Mostly Cloudy
8:53 AM 63.0 °F - 57.9 °F 84% 29.79 in 10.0 mi South 13.8 mph 25.3 mph 0.00 in   Overcast
9:34 AM 64.4 °F - 59.0 °F 83% 29.77 in 10.0 mi SSE 12.7 mph 26.5 mph N/A   Overcast
9:43 AM 64.4 °F - 59.0 °F 83% 29.77 in 10.0 mi SSE 15.0 mph 28.8 mph N/A   Overcast
9:53 AM 64.9 °F - 59.0 °F 81% 29.77 in 10.0 mi South 16.1 mph 25.3 mph N/A   Overcast
10:53 AM 66.0 °F - 60.1 °F 81% 29.79 in 6.0 mi South 17.3 mph 32.2 mph 0.01 in Rain Rain
11:34 AM 59.0 °F - 55.4 °F 88% 29.84 in 2.0 mi WSW 17.3 mph 29.9 mph 0.15 in Rain Heavy Rain
11:41 AM 57.2 °F - 53.6 °F 88% 29.84 in 1.5 mi West 19.6 mph 29.9 mph 0.19 in Rain Heavy Rain
11:49 AM 55.4 °F - 53.6 °F 94% 29.85 in 3.0 mi West 11.5 mph 26.5 mph 0.22 in Rain Rain
11:53 AM 55.9 °F - 52.0 °F 87% 29.84 in 5.0 mi WNW 12.7 mph 24.2 mph 0.22 in Rain Light Rain
12:13 PM 55.4 °F - 51.8 °F 88% 29.85 in 10.0 mi West 9.2 mph 18.4 mph 0.00 in Rain Light Rain
12:53 PM 54.0 °F - 52.0 °F 93% 29.87 in 3.0 mi West 6.9 mph - 0.09 in Rain Rain
1:03 PM 53.6 °F - 51.8 °F 94% 29.85 in 2.5 mi NW 5.8 mph - 0.04 in Rain Rain
1:11 PM 53.6 °F - 51.8 °F 94% 29.84 in 3.0 mi NW 4.6 mph - 0.07 in Rain Heavy Rain
1:53 PM 54.0 °F - 52.0 °F 93% 29.84 in 8.0 mi Calm Calm - 0.13 in Rain Light Rain
2:13 PM 53.6 °F - 51.8 °F 94% 29.83 in 2.0 mi Calm Calm - 0.07 in Rain Rain
2:23 PM 53.6 °F - 51.8 °F 94% 29.82 in 5.0 mi Calm Calm - 0.08 in Rain Rain
2:53 PM 54.0 °F - 53.1 °F 97% 29.81 in 5.0 mi SE 4.6 mph - 0.16 in Rain Light Rain
3:38 PM 55.4 °F - 53.6 °F 94% 29.83 in 10.0 mi SW 5.8 mph - 0.04 in Rain Light Rain
3:53 PM 55.9 °F - 53.1 °F 90% 29.83 in 10.0 mi WSW 5.8 mph - 0.04 in   Overcast
4:53 PM 55.9 °F - 53.1 °F 90% 29.82 in 9.0 mi WSW 6.9 mph - 0.06 in Rain Light Rain
5:06 PM 55.4 °F - 53.6 °F 94% 29.81 in 10.0 mi WSW 5.8 mph - 0.00 in Rain Light Rain
5:53 PM 57.0 °F - 54.0 °F 89% 29.83 in 10.0 mi WSW 6.9 mph - 0.00 in   Overcast
6:53 PM 57.0 °F - 53.1 °F 87% 29.83 in 10.0 mi SW 4.6 mph - N/A   Overcast
7:13 PM 57.2 °F - 53.6 °F 88% 29.84 in 10.0 mi WSW 3.5 mph - N/A   Overcast
7:24 PM 55.4 °F - 53.6 °F 94% 29.84 in 10.0 mi WSW 4.6 mph - N/A   Overcast
7:31 PM 55.4 °F - 53.6 °F 94% 29.85 in 10.0 mi SW 4.6 mph - N/A   Overcast
7:53 PM 55.9 °F - 53.1 °F 90% 29.84 in 10.0 mi WSW 4.6 mph - 0.01 in   Overcast
8:53 PM 55.0 °F - 51.1 °F 86% 29.87 in 10.0 mi West 3.5 mph - N/A   Overcast
9:53 PM 53.1 °F - 43.0 °F 69% 29.90 in 10.0 mi West 10.4 mph - N/A   Overcast
10:53 PM 50.0 °F - 41.0 °F 71% 29.93 in 10.0 mi West 6.9 mph - N/A   Overcast
11:53 PM 46.9 °F - 39.0 °F 74% 29.94 in 10.0 mi WNW 8.1 mph - N/A   Mostly Cloudy
12:53 AM 45.0 °F 40.6 °F 39.0 °F 80% 29.94 in 10.0 mi West 8.1 mph - N/A   Mostly Cloudy